DW8122 Weather Reports


time (UTC)temp
C
wind
direction
speed
KPH
gust
KPH
rain 1hr
cm
rain 24hr
cm
rain mn
cm
humidity
%
barometer
mb
20260506231559 20 301 3.2 4.8 0.00 0.51 0.51 78 1005.9
20260506231057 20 282 3.2 3.2 0.00 0.51 0.51 78 1005.9
20260506230553 20 294 3.2 4.8 0.00 0.51 0.51 78 1005.9
20260506230051 20 299 3.2 3.2 0.00 0.51 0.51 79 1005.7
20260506225548 20 285 3.2 3.2 0.00 0.51 0.51 79 1006.0
20260506225044 20 297 3.2 3.2 0.00 0.51 0.51 79 1005.9
20260506224541 20 289 3.2 3.2 0.00 0.51 0.51 79 1005.9
20260506224037 20 310 1.6 1.6 0.00 0.51 0.51 78 1005.9
20260506223533 20 290 1.6 3.2 0.00 0.51 0.51 78 1005.8
20260506223030 20 298 1.6 3.2 0.00 0.51 0.51 78 1005.6
20260506222527 20 294 3.2 3.2 0.00 0.51 0.51 77 1006.0
20260506222023 20 282 3.2 4.8 0.00 0.51 0.51 76 1005.9
20260506221521 20 294 3.2 3.2 0.00 0.51 0.51 77 1005.6
20260506221019 20 317 0.0 4.8 0.00 0.51 0.51 78 1005.7
20260506220514 20 316 1.6 3.2 0.00 0.51 0.51 77 1005.6
20260506220010 20 309 1.6 3.2 0.00 0.51 0.51 77 1005.4
20260506215507 20 283 1.6 3.2 0.00 0.51 0.51 77 1005.8
20260506215003 20 281 4.8 4.8 0.00 0.51 0.51 76 1005.6
20260506214500 20 302 3.2 4.8 0.00 0.51 0.51 77 1005.5
20260506213957 20 261 6.4 6.4 0.00 0.51 0.51 76 1005.5
20260506213455 20 303 1.6 3.2 0.00 0.51 0.51 76 1005.4
20260506212952 20 318 0.0 3.2 0.00 0.51 0.51 76 1005.2
20260506212448 20 305 1.6 3.2 0.00 0.51 0.51 77 1005.5
20260506211943 19 290 1.6 3.2 0.00 0.51 0.51 78 1005.6
20260506211439 19 265 3.2 4.8 0.00 0.51 0.51 78 1005.5
20260506210936 19 310 1.6 3.2 0.00 0.51 0.51 78 1005.3
20260506210433 19 293 3.2 3.2 0.00 0.51 0.51 78 1005.2
20260506205930 19 292 1.6 3.2 0.00 0.51 0.51 78 1005.3
20260506205426 19 281 4.8 6.4 0.00 0.51 0.51 78 1005.1
20260506204922 20 271 6.4 6.4 0.00 0.51 0.51 76 1005.2
20260506204420 20 280 4.8 6.4 0.00 0.51 0.51 77 1005.2
20260506203918 20 247 6.4 9.7 0.00 0.51 0.51 76 1005.1
20260506203414 20 283 8.0 11.3 0.00 0.51 0.51 76 1005.1
20260506202911 20 267 6.4 9.7 0.00 0.51 0.51 77 1005.0
20260506202409 19 260 4.8 9.7 0.00 0.51 0.51 78 1005.0
20260506201905 19 253 6.4 9.7 0.00 0.51 0.51 78 1005.2
20260506201403 19 274 3.2 9.7 0.00 0.51 0.51 79 1005.2
20260506200859 19 278 6.4 9.7 0.00 0.51 0.51 78 1005.2
20260506200355 18 269 8.0 9.7 0.00 0.51 0.51 80 1005.0
20260506195851 18 260 6.4 6.4 0.00 0.51 0.51 80 1005.1
20260506195349 18 254 6.4 12.9 0.00 0.51 0.51 79 1005.3
20260506194846 18 269 8.0 11.3 0.00 0.51 0.51 79 1005.3
20260506194342 18 269 6.4 9.7 0.00 0.51 0.51 81 1005.3
20260506193840 18 283 4.8 4.8 0.00 0.51 0.51 80 1005.5
20260506193336 18 277 6.4 9.7 0.00 0.51 0.51 81 1005.4
20260506192833 18 271 6.4 9.7 0.00 0.51 0.51 81 1005.5
20260506192330 18 272 4.8 9.7 0.00 0.51 0.51 80 1005.4
20260506191827 18 273 4.8 6.4 0.00 0.51 0.51 81 1005.4
20260506191323 18 277 3.2 6.4 0.00 0.51 0.51 82 1005.5
20260506190820 18 264 6.4 9.7 0.00 0.51 0.51 81 1005.4
20260506190316 18 288 6.4 9.7 0.00 0.51 0.51 79 1005.6
20260506185813 18 267 6.4 9.7 0.00 0.51 0.51 82 1005.6
20260506185310 18 262 6.4 14.5 0.00 0.51 0.51 81 1005.6
20260506184807 18 257 6.4 9.7 0.00 0.51 0.51 81 1005.6
20260506184305 18 260 8.0 11.3 0.00 0.51 0.51 81 1005.8
20260506183802 18 262 4.8 4.8 0.00 0.51 0.51 83 1005.7
20260506183257 18 266 6.4 9.7 0.00 0.51 0.51 83 1005.9
20260506182754 17 259 4.8 6.4 0.00 0.51 0.51 85 1005.9
20260506182251 17 259 6.4 6.4 0.00 0.51 0.51 86 1005.9
20260506181749 17 290 6.4 6.4 0.00 0.51 0.51 86 1006.2
20260506181247 16 291 3.2 6.4 0.00 0.51 0.51 87 1006.2
20260506180744 16 279 3.2 4.8 0.00 0.51 0.51 87 1006.3
20260506180239 16 307 1.6 9.7 0.00 0.51 0.51 87 1006.3
20260506175736 16 295 3.2 4.8 0.00 0.51 0.51 87 1006.3
20260506175233 16 261 11.3 14.5 0.00 0.51 0.51 87 1006.5
20260506174730 16 297 4.8 6.4 0.00 0.51 0.51 87 1006.5
20260506174227 16 280 3.2 9.7 0.00 0.51 0.51 87 1006.4
20260506173725 16 277 4.8 9.7 0.00 0.51 0.51 87 1006.3
20260506173221 16 271 4.8 4.8 0.00 0.51 0.51 87 1006.3
20260506172718 16 287 3.2 9.7 0.00 0.51 0.51 87 1006.2
20260506172215 16 274 4.8 6.4 0.00 0.51 0.51 87 1006.2
20260506171713 16 251 3.2 4.8 0.00 0.51 0.51 87 1006.3
20260506171210 16 292 3.2 9.7 0.00 0.51 0.51 87 1006.2
20260506170707 16 234 3.2 6.4 0.00 0.51 0.51 87 1006.3
20260506170204 16 304 6.4 9.7 0.00 0.51 0.51 87 1006.1
20260506165702 16 303 3.2 9.7 0.00 0.51 0.51 87 1006.2
20260506165158 16 279 3.2 9.7 0.00 0.51 0.51 88 1006.2
20260506164655 16 261 6.4 6.4 0.00 0.51 0.51 88 1006.3
20260506164153 16 266 4.8 4.8 0.00 0.51 0.51 88 1006.0
20260506163649 16 229 3.2 4.8 0.00 0.51 0.51 88 1006.3
20260506163145 16 311 3.2 11.3 0.00 0.51 0.51 88 1006.3
20260506162641 16 251 9.7 12.9 0.00 0.51 0.51 88 1006.3
20260506162138 16 252 4.8 6.4 0.00 0.51 0.51 89 1006.1
20260506161635 16 272 4.8 9.7 0.00 0.51 0.51 88 1006.5
20260506161132 16 309 1.6 3.2 0.00 0.51 0.51 89 1006.5
20260506160630 16 220 3.2 9.7 0.18 0.51 0.51 89 1006.0
20260506160126 16 205 3.2 4.8 0.18 0.51 0.51 89 1006.2
20260506155625 16 308 1.6 4.8 0.00 0.48 0.48 90 1006.0
20260506155122 16 321 0.0 3.2 0.13 0.48 0.48 91 1006.1
20260506153224 16 216 1.6 4.8 0.30 0.46 0.46 90 1006.9
20260506152721 16 256 1.6 4.8 0.13 0.43 0.43 90 1007.0
20260506152218 16 248 3.2 4.8 0.18 0.41 0.41 90 1007.2
20260506151717 16 283 3.2 4.8 0.30 0.41 0.41 90 1007.0
20260506151213 16 338 1.6 3.2 0.13 0.38 0.38 90 1007.2
20260506150710 16 295 3.2 3.2 0.18 0.36 0.36 90 1007.3
20260506150207 16 298 1.6 3.2 0.36 0.36 0.36 90 1007.3
20260506145704 16 254 0.0 3.2 0.30 0.33 0.33 90 1007.1
20260506145200 16 339 1.6 3.2 0.30 0.30 0.30 89 1007.2
20260506144658 16 333 3.2 4.8 0.30 0.28 0.28 88 1007.1
20260506144155 16 287 1.6 4.8 0.18 0.23 0.23 88 1006.9
20260506143653 16 297 0.0 3.2 0.18 0.23 0.23 88 1007.0
20260506143150 16 323 3.2 3.2 0.00 0.20 0.20 87 1007.1
20260506142648 16 320 0.0 3.2 0.13 0.20 0.20 88 1006.7
20260506142146 16 228 1.6 3.2 0.00 0.18 0.18 88 1007.1
20260506141644 16 232 1.6 3.2 0.18 0.18 0.18 88 1007.1
20260506141142 16 312 0.0 3.2 0.18 0.18 0.18 88 1007.0
20260506140639 16 260 1.6 3.2 0.13 0.15 0.15 87 1007.1
20260506140136 16 299 3.2 3.2 0.30 0.15 0.15 86 1007.1
20260506135633 16 318 1.6 3.2 0.18 0.13 0.13 86 1007.0
20260506135129 16 296 1.6 4.8 0.13 0.10 0.10 85 1006.9
20260506134626 16 283 1.6 3.2 0.30 0.10 0.10 84 1007.0
20260506134121 16 264 0.0 1.6 0.30 0.08 0.08 84 1007.0
20260506133619 16 323 1.6 3.2 0.13 0.05 0.05 82 1007.2
20260506133116 16 323 0.0 3.2 0.18 0.03 0.03 82 1006.9
20260506132613 17 278 1.6 3.2 0.00 0.00 0.00 82 1007.1
20260506132110 17 333 1.6 3.2 0.00 0.00 0.00 81 1007.0
20260506131607 17 299 1.6 4.8 0.00 0.00 0.00 80 1007.0
20260506131103 17 285 3.2 6.4 0.00 0.00 0.00 81 1007.1
20260506130600 17 220 1.6 3.2 0.00 0.00 0.00 81 1007.2
20260506130058 17 287 3.2 4.8 0.00 0.00 0.00 80 1007.1
20260506125556 17 332 1.6 4.8 0.00 0.00 0.00 80 1007.1
20260506125054 17 276 3.2 3.2 0.00 0.00 0.00 79 1007.3
20260506124551 17 269 1.6 4.8 0.00 0.00 0.00 79 1007.2
20260506124049 17 328 3.2 11.3 0.00 0.00 0.00 79 1007.3
20260506123546 17 262 3.2 6.4 0.00 0.00 0.00 78 1007.3
20260506123045 17 298 6.4 6.4 0.00 0.00 0.00 77 1007.4
20260506122541 17 242 6.4 9.7 0.00 0.00 0.00 77 1007.4
20260506122039 17 278 6.4 9.7 0.00 0.00 0.00 76 1007.5
20260506121536 17 234 3.2 9.7 0.00 0.00 0.00 76 1007.1
20260506121032 17 255 6.4 12.9 0.00 0.00 0.00 75 1007.1
20260506120531 17 247 3.2 9.7 0.00 0.00 0.00 74 1007.0
20260506120028 17 256 6.4 6.4 0.00 0.00 0.00 74 1007.1
20260506115526 17 216 3.2 4.8 0.00 0.00 0.00 74 1007.0
20260506115024 17 273 3.2 9.7 0.00 0.00 0.00 74 1006.9
20260506114521 17 299 1.6 6.4 0.00 0.00 0.00 74 1006.9
20260506114019 17 278 3.2 6.4 0.00 0.00 0.00 74 1006.8
20260506113517 17 304 1.6 4.8 0.00 0.00 0.00 74 1006.8
20260506113014 17 259 6.4 12.9 0.00 0.00 0.00 73 1006.7
20260506112510 17 190 3.2 9.7 0.00 0.00 0.00 74 1006.7
20260506112008 17 318 4.8 11.3 0.00 0.00 0.00 73 1006.5
20260506111506 17 327 3.2 4.8 0.00 0.00 0.00 74 1006.7
20260506111002 17 272 4.8 6.4 0.00 0.00 0.00 73 1006.4
20260506110500 17 314 1.6 11.3 0.00 0.00 0.00 74 1006.5
20260506105957 17 306 1.6 4.8 0.00 0.00 0.00 74 1006.4
20260506105453 17 332 1.6 3.2 0.00 0.00 0.00 74 1006.5
20260506104951 17 232 3.2 3.2 0.00 0.00 0.00 74 1006.2
20260506104449 17 302 1.6 4.8 0.00 0.00 0.00 73 1006.3
20260506103947 17 140 3.2 9.7 0.00 0.00 0.00 74 1006.3
20260506103443 17 231 3.2 9.7 0.00 0.00 0.00 73 1006.3
20260506102940 17 330 1.6 3.2 0.00 0.00 0.00 74 1006.2
20260506102438 17 160 3.2 3.2 0.00 0.00 0.00 73 1006.2
20260506101935 17 283 1.6 6.4 0.00 0.00 0.00 73 1006.3
20260506101431 17 203 3.2 4.8 0.00 0.00 0.00 73 1006.2
20260506100929 17 289 4.8 6.4 0.00 0.00 0.00 73 1006.2
20260506100427 17 284 1.6 4.8 0.00 0.00 0.00 73 1006.1
20260506095925 17 337 1.6 3.2 0.00 0.00 0.00 72 1006.1
20260506095423 17 336 1.6 4.8 0.00 0.00 0.00 72 1006.1
20260506094919 18 277 1.6 3.2 0.00 0.00 0.00 72 1006.4
20260506094418 18 245 1.6 4.8 0.00 0.00 0.00 71 1006.1
20260506093915 18 283 1.6 4.8 0.00 0.00 0.00 71 1006.2
20260506093413 18 253 3.2 3.2 0.00 0.00 0.00 71 1006.0
20260506092910 18 336 1.6 3.2 0.00 0.00 0.00 70 1006.0
20260506092408 18 211 4.8 9.7 0.00 0.00 0.00 70 1006.2
20260506091904 18 302 1.6 3.2 0.00 0.00 0.00 70 1006.3
20260506091403 18 330 0.0 9.7 0.00 0.00 0.00 70 1006.3
20260506090859 18 332 0.0 3.2 0.00 0.00 0.00 70 1006.3
20260506090357 18 243 3.2 3.2 0.00 0.00 0.00 69 1006.4
20260506085854 18 317 0.0 6.4 0.00 0.00 0.00 69 1006.3
20260506085350 18 295 1.6 4.8 0.00 0.00 0.00 69 1006.3
20260506084847 18 189 1.6 3.2 0.00 0.00 0.00 68 1006.6
20260506084343 18 215 1.6 4.8 0.00 0.00 0.00 68 1006.4
20260506083840 18 174 3.2 4.8 0.00 0.00 0.00 68 1006.4
20260506083337 18 242 1.6 4.8 0.00 0.00 0.00 67 1006.5
20260506082835 18 344 1.6 4.8 0.00 0.00 0.00 67 1006.2
20260506082331 18 333 0.0 3.2 0.00 0.00 0.00 67 1006.2
20260506081827 18 262 1.6 4.8 0.00 0.00 0.00 66 1006.3
20260506081326 18 325 1.6 3.2 0.00 0.00 0.00 66 1006.4
20260506080823 18 249 0.0 3.2 0.00 0.00 0.00 65 1006.3
20260506080319 19 343 1.6 3.2 0.00 0.00 0.00 65 1006.4
20260506073303 19 351 3.2 3.2 0.00 0.00 0.00 63 1006.4
20260506072800 19 346 1.6 3.2 0.00 0.00 0.00 62 1006.5
20260506072258 19 242 3.2 4.8 0.00 0.00 0.00 62 1006.6
20260506071755 19 331 0.0 9.7 0.00 0.00 0.00 62 1006.6
20260506071253 19 253 1.6 3.2 0.00 0.00 0.00 62 1006.5
20260506070750 19 287 3.2 3.2 0.00 0.00 0.00 62 1006.7
20260506070247 19 313 1.6 3.2 0.00 0.00 0.00 62 1006.8
20260506062224 20 295 0.0 4.8 0.00 0.00 0.00 59 1007.1
20260506061720 20 312 0.0 3.2 0.00 0.00 0.00 58 1007.4
20260506061217 20 316 1.6 3.2 0.00 0.00 0.00 58 1007.3
20260506060716 20 234 1.6 3.2 0.00 0.00 0.00 58 1007.2
20260506060212 20 336 1.6 3.2 0.00 0.00 0.00 57 1007.5
20260506051144 20 306 1.6 3.2 0.00 0.00 0.00 55 1007.6
20260506050643 20 316 1.6 3.2 0.00 0.00 0.00 55 1007.8
20260506050139 20 238 1.6 4.8 0.00 0.00 0.00 55 1007.4
20260506045132 20 294 1.6 3.2 0.00 0.00 0.00 54 1007.7
20260506044631 20 320 0.0 3.2 0.00 0.00 0.00 53 1007.7
20260506044127 20 269 3.2 3.2 0.00 0.00 0.00 53 1008.0
20260506043624 20 271 1.6 4.8 0.00 0.00 0.00 53 1007.8
20260506043123 20 343 3.2 6.4 0.00 0.00 0.00 53 1007.7
20260506042621 20 323 1.6 4.8 0.00 0.00 0.00 53 1007.9
20260506042119 20 273 3.2 3.2 0.00 0.00 0.00 53 1007.7
20260506041618 20 199 4.8 6.4 0.00 0.00 0.00 54 1007.8
20260506041114 20 307 1.6 1.6 0.00 0.00 0.00 54 1007.8
20260506040612 20 343 1.6 4.8 0.00 0.00 0.00 53 1007.8
20260506040108 20 229 1.6 3.2 0.00 0.00 0.00 53 1007.7
20260506035605 20 212 1.6 4.8 0.00 0.00 0.00 54 1007.6
20260506035101 19 306 1.6 3.2 0.00 0.00 0.00 54 1007.6
20260506034559 19 279 1.6 3.2 0.00 0.00 0.00 55 1007.7
20260506034056 19 291 1.6 1.6 0.00 0.00 0.00 54 1007.5
20260506033553 20 322 1.6 1.6 0.00 0.00 0.00 54 1007.5
20260506033050 20 315 1.6 3.2 0.00 0.00 0.00 53 1007.3
20260506032547 20 331 1.6 1.6 0.00 0.00 0.00 53 1007.7
20260506032044 20 7 1.6 3.2 0.00 0.00 0.00 52 1007.7
20260506031542 20 285 0.0 3.2 0.00 0.00 0.00 51 1007.7
20260506031038 20 302 0.0 1.6 0.00 0.00 0.00 50 1007.5
20260506030536 20 299 1.6 3.2 0.00 0.00 0.00 49 1007.7
20260506030033 20 318 1.6 3.2 0.00 0.00 0.00 49 1007.4
20260506025530 20 279 3.2 4.8 0.00 0.00 0.00 49 1007.8
20260506025026 20 272 3.2 4.8 0.00 0.00 0.00 50 1007.6
20260506024523 20 301 3.2 3.2 0.00 0.00 0.00 50 1007.6
20260506024020 20 331 1.6 3.2 0.00 0.00 0.00 50 1007.8
20260506023516 20 333 1.6 4.8 0.00 0.00 0.00 50 1007.7
20260506023014 20 297 3.2 4.8 0.00 0.00 0.00 50 1007.6
20260506022511 20 295 0.0 1.6 0.00 0.00 0.00 51 1007.7
20260506022008 20 284 1.6 3.2 0.00 0.00 0.00 51 1007.5
20260506021506 20 311 1.6 1.6 0.00 0.00 0.00 51 1007.7
20260506021003 20 316 0.0 3.2 0.00 0.00 0.00 51 1007.8
20260506020500 20 292 1.6 1.6 0.00 0.00 0.00 51 1007.7
20260506015957 20 313 0.0 3.2 0.00 0.00 0.00 50 1007.6
20260506015454 20 316 0.0 3.2 0.00 0.00 0.00 50 1007.7
20260506014951 20 260 1.6 3.2 0.00 0.00 0.00 50 1007.8
20260506014448 20 323 0.0 3.2 0.00 0.00 0.00 49 1007.4
20260506013944 20 349 1.6 3.2 0.00 0.00 0.00 49 1007.7
20260506013443 21 337 0.0 1.6 0.00 0.00 0.00 49 1007.3
20260506012939 21 312 0.0 0.0 0.00 0.00 0.00 48 1007.5
20260506012435 21 285 1.6 1.6 0.00 0.00 0.00 48 1007.0
20260506011932 21 322 0.0 1.6 0.00 0.00 0.00 48 1007.3
20260506011430 21 309 0.0 1.6 0.00 0.00 0.00 47 1007.2
20260506010926 21 313 0.0 3.2 0.00 0.00 0.00 46 1007.1
20260506010426 21 315 0.0 1.6 0.00 0.00 0.00 46 1006.9
20260506005921 22 310 1.6 3.2 0.00 0.00 0.00 44 1007.1
20260506005419 21 246 1.6 3.2 0.00 0.00 0.00 45 1007.0
20260506004914 21 268 3.2 3.2 0.00 0.00 0.00 45 1006.9
20260506004413 22 326 0.0 3.2 0.00 0.00 0.00 45 1006.8
20260506003908 22 232 1.6 1.6 0.00 0.00 0.00 44 1006.8
20260506003404 22 320 0.0 3.2 0.00 0.00 0.00 44 1006.9
20260506002901 22 331 0.0 1.6 0.00 0.00 0.00 43 1006.7
20260506002357 22 308 1.6 3.2 0.00 0.00 0.00 43 1006.9
20260506001853 22 1 0.0 1.6 0.00 0.00 0.00 41 1006.8
20260506001350 22 207 3.2 3.2 0.00 0.00 0.00 41 1006.7
20260506000847 22 299 0.0 1.6 0.00 0.00 0.00 41 1006.8
20260506000346 23 313 0.0 1.6 0.00 0.00 0.00 40 1006.5
20260505235841 23 319 1.6 1.6 0.00 0.00 0.00 40 1006.8
20260505235339 23 319 0.0 1.6 0.00 0.00 0.00 40 1006.6
20260505234836 23 321 0.0 1.6 0.00 0.00 0.00 40 1006.5
20260505234334 23 320 1.6 3.2 0.00 0.00 0.00 39 1006.6
20260505233830 23 7 1.6 3.2 0.00 0.00 0.00 39 1006.5
20260505233328 23 305 0.0 3.2 0.00 0.00 0.00 39 1006.6
20260505232825 23 336 0.0 1.6 0.00 0.00 0.00 39 1006.3
20260505232323 23 314 1.6 3.2 0.00 0.00 0.00 39 1006.2
20260505231820 23 294 1.6 3.2 0.00 0.00 0.00 39 1006.3